Location: Elbart
(49.6135°N, 11.9134°E)
Time: 16:52:32
(UTC+00:00)

STARLINK-1219 - Pass Details

Date: 09 April 2020
Orbit: 548 x 551 km, 53.0° (Epoch: 02 June)

Event Time Altitude Azimuth Distance (km) Brightness Sun altitude
Rises 18:16:48 0° 293° (WNW) 2,664 9.9 -3.9°
Reaches altitude 10° 18:19:01 10° 291° (WNW) 1,774 8.2 -4.3°
Maximum altitude 18:23:01 76° 206° (SSW) 548 3.7 -4.9°
Drops below altitude 10° 18:27:02 10° 121° (ESE) 1,773 5.6 -5.5°
Enters shadow 18:27:44 - 121° (ESE) 2,051 5.9 -5.6°
